Regional Weather Roundup
Issued by NWS

Home | Current Version | Previous Version | Graphics & Text | Print | Product List | Glossary On
Versions: 1 2 3 4 5 6 7 8 9 10 11 12 13 14 15 16 17 18 19 20 21 22 23 24 25 26 27 28 29 30 31 32 33 34 35 36 37 38 39 40 41 42 43 44 45 46 47 48 49 50
000
ASUS43 KTOP 151608
RWRKS

WEATHER ROUNDUP FOR KANSAS
NATIONAL WEATHER SERVICE GOODLAND KS
1100 AM CDT MON SEP 15 2014

NOTE:  "FAIR" INDICATES FEW OR NO CLOUDS BELOW 12,000 FEET WITH NO
SIGNIFICANT WEATHER AND/OR OBSTRUCTIONS TO VISIBILITY.

KSZ001>006-013>018-027>032-041>047-151700-
NORTHWEST KANSAS

CITY           SKY/WX    TMP DP  RH WIND       PRES   REMARKS
GOODLAND       CLOUDY    51  49  92 N12       30.32R
HAYS           CLOUDY    63  54  72 N21G35    30.19R
HILL CITY      CLOUDY    60  50  69 N15       30.26R
RUSSELL        CLOUDY    64  58  80 N20G28    30.15R
$$

KSZ061>065-074>080-084>089-151700-
SOUTHWEST KANSAS

CITY           SKY/WX    TMP DP  RH WIND       PRES   REMARKS
DODGE CITY     CLOUDY    59  56  89 N15       30.18R
ELKHART          N/A     59  53  80 N15         N/A
GARDEN CITY    LGT RAIN  57  57 100 NE18G25   30.20R FOG
GREAT BEND     CLOUDY    61  57  88 N14       30.17R
LIBERAL        CLOUDY    72  59  64 W10       30.17R
PRATT          CLOUDY    72  59  64 W9        30.15R
$$

KSZ066>073-081>083-090>101-151700-
SOUTHEAST KANSAS

CITY           SKY/WX    TMP DP  RH WIND       PRES   REMARKS
CHANUTE        MOSUNNY   78  66  66 SW17      30.10F
COFFEYVILLE    MOSUNNY   77  66  68 SW15      30.12S
HUTCHINSON     CLOUDY    75  62  64 W10       30.12R
MEDICINE LODGE   N/A     80  62  54 W13       30.11S
NEWTON         MOSUNNY   75  61  60 SW16      30.13R
PARSONS        SUNNY     79  66  64 SW14G21   30.13S
WICHITA INTL   MOSUNNY   80  62  54 SW15      30.10S
WICHITA JABRA  SUNNY     78  63  59 SW14G23   30.10S
WICHITA MCCONL SUNNY     79  64  59 SW16      30.11S
WINFIELD       MOSUNNY   80  66  62 SW17G23   30.13R
$$

KSZ007>012-019>026-033>040-048>060-102>105-151700-
NORTHEAST KANSAS

CITY           SKY/WX    TMP DP  RH WIND       PRES   REMARKS
CONCORDIA      CLOUDY    60  56  86 N17G30    30.17R
EMPORIA        MOSUNNY   77  65  66 W13G21    30.09R
LAWRENCE       CLOUDY    71  64  78 W9        30.09R
MANHATTAN      CLOUDY    69  63  81 N6        30.11R
MARYSVILLE     CLOUDY    59  55  88 N12G28    30.15R
OLATHE IND     CLOUDY    72  65  78 W13       30.09R
OLATHE EXE     CLOUDY    71  64  78 W8        30.08R
SALINA         CLOUDY    68  62  81 N16       30.13R
TOPEKA BILLARD CLOUDY    72  66  81 W7        30.09R
TOPEKA FORBES  CLOUDY    72  65  78 W8        30.09R
$$



USA.gov is the U.S. government's official web portal to all federal, state and local government web resources and services.